Regional Weather Roundup
Issued by NWS

Home | Current Version | Previous Version | Text Only | Print | Product List | Glossary On
Versions: 1 2 3 4 5 6 7 8 9 10 11 12 13 14 15 16 17 18 19 20 21 22 23 24 25 26 27
000
ASUS43 KDMX 241707
RWRIA

WEATHER ROUNDUP FOR IOWA
NATIONAL WEATHER SERVICE DES MOINES IA
1200 PM CDT FRI OCT 24 2014

NOTE: "FAIR" INDICATES FEW OR NO CLOUDS BELOW 12,000 FEET WITH NO
SIGNIFICANT WEATHER AND/OR OBSTRUCTIONS TO VISIBILITY.

* - THESE STATIONS ARE NOT NWS STATIONS...THUS NOT UNDER NWS
QUALITY CONTROL.  THEY ALSO DO NOT REPORT WEATHER SUCH
AS PRECIPITATION OR FOG.

IAZ001>003-012>014-020>022-031>034-043>046-241800-
   NORTHWEST IOWA

CITY           SKY/WX    TMP DP  RH WIND       PRES   REMARKS
CARROLL *      CLOUDY    66  59  77 SW16      29.92S
CHEROKEE *     PTSUNNY   64  57  77 W8        29.91S
DENISON *      MOSUNNY   66  61  82 W9G16     29.91R
LE MARS *      SUNNY     64  54  68 W5        29.92R
ORANGE CITY *  SUNNY     63  54  72 W3        29.91S
SHELDON *      SUNNY     63  52  67 W6        29.90R
SIOUX CITY     CLOUDY    67  53  61 NW5       29.92S
SPENCER        CLOUDY    64  54  69 W10       29.91R
STORM LAKE *   SUNNY     64  55  72 W13       29.92S
$$

IAZ055>058-069>071-079>083-090>094-241800-
   SOUTHWEST IOWA

CITY           SKY/WX    TMP DP  RH WIND       PRES   REMARKS
ATLANTIC *     CLOUDY    66  61  82 SW16      29.94F
AUDUBON *      SUNNY     64  57  77 SW9       29.94F HAZE
CLARINDA *     CLOUDY    64  61  88 S9G16     29.98F
COUNCIL BLFS * MOSUNNY   66  63  88 S9        29.93F
CRESTON *      CLOUDY    61  61 100 S15       29.97S FOG
HARLAN  *      PTSUNNY   66  63  88 SW14      29.96F
LAMONI         CLOUDY    59  59 100 S12       30.00F FOG
RED OAK *      MOSUNNY   68  63  83 S14       29.95F
SHENANDOAH *   MOSUNNY   70  63  78 SW12G17   29.97S
$$

IAZ047>049-059>061-072>074-084-241800-
   CENTRAL IOWA

CITY           SKY/WX    TMP DP  RH WIND       PRES   REMARKS
AMES           CLOUDY    61  59  93 S10       29.94S FOG
ANKENY *       CLOUDY    61  61 100 S15       29.94F
CHARITON *     CLOUDY    59  59 100 S14       29.99F FOG
DES MOINES     CLOUDY    63  60  90 S12       29.95F FOG
GRINNELL*      FOG       59  57  94 S14       29.98F VSB 1/2
KNOXVILLE *    CLOUDY    61  59  94 S14       29.97F FOG
MARSHALLTOWN   CLOUDY    59  59 100 S13G21    29.94F FOG
PELLA *        CLOUDY    61  61 100 S12       29.99F FOG
PERRY *        CLOUDY    64  61  88 S12       29.93F FOG
$$

IAZ004>006-015-016-023>025-035-036-241800-
   NORTH CENTRAL IOWA

CITY           SKY/WX    TMP DP  RH WIND       PRES   REMARKS
ALGONA *       CLOUDY    63  59  88 SW10      29.91S
CLARION *      FOG       59  59 100 SW9       29.92S VSB 3/4
ESTHERVILLE    CLOUDY    62  54  74 W9        29.89S
FORT DODGE *   CLOUDY    63  57  82 SW8       29.92S
MASON CITY     FOG       55  55 100 S8        29.93F VSB 1/2
FOREST CITY *  CLOUDY    57  57 100 S7        29.91F FOG
IOWA FALLS *   FOG       59  57  94 S10       29.94F VSB 1/2
$$

IAZ007>011-017>019-026>030-037>042-050>054-066-241800-
   NORTHEAST IOWA

CITY           SKY/WX    TMP DP  RH WIND       PRES   REMARKS
CEDAR RAPIDS   FOG       53  53 100 S14       30.01F VSB 1/16
CHARLES CITY * FOG       52  52 100 S9        29.96R VSB 3/4
CLINTON *      CLOUDY    55  52  88 S9        30.08S
DECORAH *      MOSUNNY   61  55  82 S12G21    29.94F
DUBUQUE        CLOUDY    53  53 100 S13       30.02F FOG
MONTICELLO *   CLOUDY    55  55 100 SE12      30.01F FOG
OELWEIN *      FOG       55  55 100 S13G20    29.97F VSB 1
WATERLOO       CLOUDY    52  52 100 S13       29.95F FOG
$$

IAZ064-065-067-068-078-241800-
   EAST CENTRAL IOWA

CITY           SKY/WX    TMP DP  RH WIND       PRES   REMARKS
DAVENPORT      PTSUNNY   58  52  80 S8        30.05F
IOWA CITY      CLOUDY    55  55 100 S9        30.04F FOG
MT. PLEASANT * CLOUDY    55  55 100 S7        30.06S FOG
MUSCATINE *    CLOUDY    57  55  94 S12       30.05F FOG
QUAD CITIES    PTSUNNY   59  53  80 S6        30.05F
$$

IAZ062-063-075>077-085>089-095>099-241800-
   SOUTHEAST IOWA

CITY           SKY/WX    TMP DP  RH WIND       PRES   REMARKS
BURLINGTON     CLOUDY    56  56 100 S9        30.07S
FAIRFIELD *    CLOUDY    59  57  94 S13       30.03F
FORT MADISON * FOG       57  57 100 S7        30.07F VSB 1
KEOKUK *       FOG       57  57 100 S10       30.07S VSB 1/4
OSKALOOSA *    CLOUDY    59  57  94 S13       30.01F FOG
CENTERVILLE *  CLOUDY    59  59 100 S10       30.04S
OTTUMWA        CLOUDY    59  57  93 S12G18    30.00F
WASHINGTON *   CLOUDY    57  57 100 S10       30.04S FOG
$$

ABBREVIATIONS USED IN REMARKS
   TC - TEMPERATURES IN CELSIUS
  WCI - WIND CHILL INDEX
   HX - HEAT INDEX
  VSB - VISIBILITY
$$




USA.gov is the U.S. government's official web portal to all federal, state and local government web resources and services.